Regional Weather Roundup
Issued by NWS

Home | Current Version | Previous Version | Text Only | Print | Product List | Glossary Off
Versions: 1 2 3 4 5 6 7 8 9 10 11 12 13 14 15 16 17 18 19 20 21 22 23 24 25 26 27 28 29 30 31 32 33 34 35 36 37 38 39 40 41 42 43 44 45 46 47 48 49 50

000
ASUS43 KIND 212100
RWRIN

WEATHER ROUNDUP FOR INDIANA
NATIONAL WEATHER SERVICE INDIANAPOLIS IN
500 PM EDT MON AUG 21 2017

NOTE: "FAIR" INDICATES FEW OR NO CLOUDS BELOW 12,000 FEET WITH NO
SIGNIFICANT WEATHER AND/OR OBSTRUCTIONS TO VISIBILITY.

* - STATION DOES NOT REPORT WEATHER SUCH AS PRECIPITATION OR FOG.

+ - STATION NOT QUALITY CONTROLLED BY THE NATIONAL WEATHER SERVICE.
    USE DATA WITH CAUTION...ESPECIALLY DEWPOINT AND RELATIVE
    HUMIDITY OBSERVATIONS.

INZ001>003-010>013-019-020-212200-
NORTHWEST INDIANA

CITY           SKY/WX    TMP DP  RH WIND       PRES   REMARKS
GARY /AIRPORT/ PTSUNNY   84  70  61 SE3       30.01S
MICHIGAN CITY+ CLOUDY    82  70  65 SE3       30.02R
MONTICELLO +   PTSUNNY   84  71  64 S8        30.03F

$$

LMZ046-743>745-212200-
SOUTHERN LAKE MICHIGAN

STATION/POSITION TIME  TEMP    WIND        PRES    WAVE
                       AIR SEA DIR/SP/G            HT
                 (UTC) (F)     (DEG/KT/KT) (MB)    (FT)
BURNS HARBOR     2040   81      80/  6/ 13 1016.6R
MICHIGAN CITY    2030   77      40/  8/  8   N/A
5NW MICH CITY    2050   76 75   90/  4/  6   N/A     1

$$

INZ004-005-014>016-021>024-212200-
NORTH CENTRAL INDIANA

CITY           SKY/WX    TMP DP  RH WIND       PRES   REMARKS
ELKHART        CLOUDY    86  68  54 CALM      30.01F
GOSHEN         CLOUDY    84  68  58 CALM      30.02F
SOUTH BEND     MOSUNNY   83  71  67 MISG      30.01F

$$

INZ006>009-017-018-025>027-212200-
NORTHEAST INDIANA

CITY           SKY/WX    TMP DP  RH WIND       PRES   REMARKS
FORT WAYNE     PTSUNNY   87  70  56 SW9       30.05F

$$

INZ028-029-035-036-043>045-051>053-212200-
WEST CENTRAL INDIANA

CITY           SKY/WX    TMP DP  RH WIND       PRES   REMARKS
LAFAYETTE      MOSUNNY   84  73  69 S9        30.03F
TERRE HAUTE    CLOUDY    81  71  71 SE9       30.08F

$$

INZ030>032-037>040-046>048-054>057-064-065-212200-
CENTRAL INDIANA

CITY           SKY/WX    TMP DP  RH WIND       PRES   REMARKS
COLUMBUS       MOSUNNY   86  63  45 SW9       30.09F
GREENWOOD *+   CLOUDY    77  71  80 W3        30.11R VSB 1/2
INDIANAPOLIS   TSTM      76  69  79 CALM      30.09S
-EAGLE CREEK   CLOUDY    75  69  81 CALM      30.08S
KOKOMO +       CLOUDY    84  75  74 S8        30.06F
MT COMFORT *+  CLOUDY    73  70  88 NW10G16   30.09F VSB 1
SHELBYVILLE    CLOUDY    79  69  71 CALM      30.09F

$$

INZ033-034-041-042-049-050-058-059-212200-
EAST CENTRAL INDIANA

CITY           SKY/WX    TMP DP  RH WIND       PRES   REMARKS
MUNCIE         TSTM      80  71  74 W12G25    30.08F
RICHMOND +     PTSUNNY   81  70  69 SW7       30.12S

$$

INZ060-061-067>069-081>083-085>088-212200-
SOUTHWEST INDIANA

CITY           SKY/WX    TMP DP  RH WIND       PRES   REMARKS
EVANSVILLE     SUNNY     92  69  47 SE9       30.06F HX  97
HUNTINGBURG +  MOSUNNY   91  71  51 S9        30.09F HX  97

$$

INZ062-063-066-070>080-084-089>092-212200-
SOUTH CENTRAL AND SOUTHEAST INDIANA

CITY           SKY/WX    TMP DP  RH WIND       PRES   REMARKS
BLOOMINGTON    CLOUDY    80  68  66 W3        30.11R THUNDER
MADISON *+     CLOUDY    88  66  48 S6        30.13S
SEYMOUR +      CLOUDY    88  68  51 CALM      30.08F

$$





USA.gov is the U.S. government's official web portal to all federal, state and local government web resources and services.